Regional Weather Roundup
Issued by NWS

Home | Current Version | Previous Version | Text Only | Print | Product List | Glossary Off
Versions: 1 2 3 4 5 6 7 8 9 10 11 12 13 14 15 16 17 18 19 20 21 22 23 24 25 26 27 28 29 30 31 32 33 34 35 36 37 38 39 40 41 42 43 44 45 46 47 48 49 50

000
ASUS43 KOAX 281210
RWRNE

WEATHER ROUNDUP FOR NEBRASKA
NATIONAL WEATHER SERVICE OMAHA NE
700 AM CDT THU MAY 28 2015

NOTES: SATELLITE DATA IS BEING USED TO AUGMENT CLOUD COVER ABOVE
       12000 FEET.
       "FAIR" INDICATES FEW OR NO CLOUDS BELOW 12,000 FEET WITH NO
       SIGNIFICANT WEATHER AND/OR OBSTRUCTIONS TO VISIBILITY.

  * THESE STATIONS DO NOT REPORT WEATHER SUCH AS RAIN...SNOW OR FOG.

NEZ001>004-019>022-054>056-281300-
NEBRASKA PANHANDLE

CITY           SKY/WX    TMP DP  RH WIND       PRES   REMARKS
SCOTTSBLUFF    CLEAR     50  49  96 E3        30.01R
6HR MIN TEMP:  50; 6HR MAX TEMP:  61; 6HR PCP:  0.01;

ALLIANCE       MOCLDY    52  50  93 SW5       29.98S
6HR MIN TEMP:  50; 6HR MAX TEMP:  59;

CHADRON        PTCLDY    57  53  86 W7        29.96R
6HR MIN TEMP:  51; 6HR MAX TEMP:  61;

KIMBALL          N/A    N/A N/A N/A MISG        N/A
SIDNEY         MOCLDY    54  53  97 S8        30.01F
6HR MIN TEMP:  49; 6HR MAX TEMP:  58; 6HR PCP:  0.06;

$$

NEZ057>060-069>072-079>082-281300-
SOUTHWEST NEBRASKA

CITY           SKY/WX    TMP DP  RH WIND       PRES   REMARKS
NORTH PLATTE   FOG       54  53  97 E9        30.03S VSB 1/4
6HR MIN TEMP:  50; 6HR MAX TEMP:  61;

IMPERIAL       MOCLDY    52  51  97 SE6       30.02F
6HR MIN TEMP:  51; 6HR MAX TEMP:  57;

LEXINGTON      FOG       53  52  97 CALM      30.03F VSB<1/4
MCCOOK         CLOUDY    54  52  93 SE5       30.02S
6HR MIN TEMP:  53; 6HR MAX TEMP:  60;

OGALLALA       PTCLDY    55  54  96 S5        30.00S
$$

NEZ005>010-023>029-035>040-094-281300-
NORTH CENTRAL NEBRASKA

CITY           SKY/WX    TMP DP  RH WIND       PRES   REMARKS
VALENTINE      MOCLDY    58  55  90 S9        29.98S
6HR MIN TEMP:  55; 6HR MAX TEMP:  62;

AINSWORTH      PTCLDY    59  58  98 S8        30.00F
BROKEN BOW     PTCLDY    57  56  96 CALM      30.02F FOG
6HR MIN TEMP:  53; 6HR MAX TEMP:  59;

O`NEILL        CLOUDY    61  58  88 S7        30.02F
ORD            MOCLDY    55  53  93 CALM      30.02S FOG
6HR MIN TEMP:  53; 6HR MAX TEMP:  62;

THEDFORD       PTCLDY    56  55  97 SE10      30.01S
$$

NEZ041-046>049-061>064-073>077-083>087-281300-
SOUTH CENTRAL NEBRASKA

CITY           SKY/WX    TMP DP  RH WIND       PRES   REMARKS
GRAND ISLAND   CLOUDY    61  58  90 SE8       30.04S
6HR MIN TEMP:  60; 6HR MAX TEMP:  66;

AURORA         CLOUDY    60  58  94 SE7       30.05S
HASTINGS       CLOUDY    60  58  92 SE7       30.04R
6HR MIN TEMP:  60; 6HR MAX TEMP:  66;

HEBRON         CLOUDY    63  60  91 E5        30.05R
HOLDREGE       CLOUDY    55  53  93 CALM      30.02F
KEARNEY *      CLOUDY    57  55  94 E7        30.04R
YORK           CLOUDY    63  57  82 SE7       30.06R
$$

NEZ011>018-030>034-042>045-281300-
NORTHEAST NEBRASKA

CITY           SKY/WX    TMP DP  RH WIND       PRES   REMARKS
NORFOLK        MOCLDY    64  54  69 SE12      30.04R
6HR MIN TEMP:  62; 6HR MAX TEMP:  69;

ALBION         CLOUDY    61  54  78 SE5       30.04S
BLAIR          CLOUDY    63  53  68 SE6       30.07R
COLUMBUS *     MOCLDY    63  52  67 SE5       30.07R
FREMONT        CLOUDY    63  55  75 SE6       30.07R
TEKAMAH        CLOUDY    58  53  84 CALM      30.07R
6HR MIN TEMP:  56; 6HR MAX TEMP:  64;

WAYNE          MOCLDY    62  54  76 S10       30.05S
$$

NEZ050>053-065>068-078-088>093-281300-
SOUTHEAST NEBRASKA

CITY           SKY/WX    TMP DP  RH WIND       PRES   REMARKS
LINCOLN        LGT RAIN  63  60  90 S13       30.07R
6HR MIN TEMP:  62; 6HR MAX TEMP:  66; 6HR PCP: TRACE;

OMAHA EPPLEY   CLOUDY    62  55  77 SE6       30.07R
6HR MIN TEMP:  62; 6HR MAX TEMP:  66;

BEATRICE       CLOUDY    62  60  94 SE8       30.08R
NEBRASKA CITY  CLOUDY    63  54  70 SW10      30.11R
PLATTSMOUTH    CLOUDY    64  54  70 SE8       30.08R
$$

NEZ044-045-051>053-067-281300-
OMAHA AREA

CITY           SKY/WX    TMP DP  RH WIND       PRES   REMARKS
OMAHA EPPLEY   CLOUDY    62  55  77 SE6       30.07R
6HR MIN TEMP:  62; 6HR MAX TEMP:  66;

BLAIR          CLOUDY    63  53  68 SE6       30.07R
FREMONT        CLOUDY    63  55  75 SE6       30.07R
MILLARD        CLOUDY    60  56  85 CALM      30.07R
OFFUTT AFB     CLOUDY    60  55  82 E6        30.07R
PLATTSMOUTH    CLOUDY    64  54  70 SE8       30.08R
WAHOO          PTSUNNY   61  56  85 CALM      30.07R
$$


USA.gov is the U.S. government's official web portal to all federal, state and local government web resources and services.